KT4FD Weather Reports


time (UTC)temp
C
wind
direction
speed
KPH
gust
KPH
rain 1hr
cm
rain 24hr
cm
rain mn
cm
humidity
%
barometer
mb
20260508012002 13 305 0.0 0.0 0.00 3.20 2.67 83 1015.8
20260508011003 13 305 0.0 3.2 0.00 3.20 2.67 83 1015.8
20260508010003 13 305 0.0 3.2 0.00 3.20 2.67 82 1015.5
20260508005002 14 305 0.0 4.8 0.00 3.23 2.67 82 1015.4
20260508004002 14 305 1.6 3.2 0.00 3.38 2.67 81 1015.4
20260508002002 15 305 0.0 0.0 0.00 3.61 2.67 77 1015.1
20260508001002 15 305 0.0 3.2 0.00 3.63 2.67 76 1015.0
20260508000003 15 305 0.0 4.8 0.00 3.66 2.67 76 1014.9
20260507235003 16 302 3.2 12.9 0.00 4.09 2.67 75 1015.0
20260507234003 16 273 4.8 9.7 0.00 4.09 2.67 75 1014.7
20260507233003 16 340 3.2 4.8 0.00 4.09 2.67 76 1014.6
20260507232002 16 341 3.2 12.9 0.00 4.09 2.67 75 1014.6
20260507231002 16 314 8.0 19.3 0.00 4.09 2.67 74 1014.6
20260507230003 16 321 12.9 19.3 0.00 4.11 2.67 74 1014.6
20260507225003 16 291 8.0 14.5 0.00 4.11 2.67 75 1014.5
20260507224003 16 324 8.0 19.3 0.00 4.11 2.67 75 1014.4
20260507223002 16 344 11.3 22.5 0.00 4.11 2.67 75 1014.3
20260507202002 20 253 11.3 32.2 0.00 4.24 2.67 69 1013.0
20260507201003 20 310 14.5 25.7 0.00 4.24 2.67 68 1012.9
20260507200003 20 297 12.9 22.5 0.00 4.24 2.67 72 1013.1
20260507195002 20 293 19.3 32.2 0.00 4.24 2.67 71 1013.1
20260507194003 19 235 9.7 24.1 0.00 4.24 2.67 75 1013.2
20260507193003 20 335 8.0 24.1 0.00 4.24 2.67 74 1013.1
20260507171003 18 264 16.1 25.7 0.00 4.24 2.67 78 1013.7
20260507170002 18 316 4.8 19.3 0.00 4.24 2.67 80 1013.5
20260507165003 19 325 9.7 24.1 0.00 4.24 2.67 80 1013.5
20260507164002 19 309 8.0 19.3 0.00 4.24 2.67 79 1013.3
20260507163003 19 304 8.0 19.3 0.00 4.24 2.67 79 1013.2
20260507162002 19 252 8.0 16.1 0.00 4.24 2.67 81 1013.0
20260507161003 19 247 8.0 12.9 0.00 4.24 2.67 81 1013.0
20260507150003 17 243 8.0 12.9 0.00 4.37 2.67 85 1013.2
20260507145003 17 254 6.4 14.5 0.00 4.37 2.67 85 1013.1
20260507144002 17 252 9.7 24.1 0.00 4.37 2.67 85 1013.4
20260507143003 17 252 8.0 19.3 0.00 4.37 2.67 87 1013.3
20260507142002 17 298 9.7 20.9 0.00 4.45 2.67 87 1013.5
20260507141002 17 262 4.8 16.1 0.00 4.45 2.67 87 1013.7
20260507140003 17 219 6.4 14.5 0.00 4.45 2.67 87 1013.6
20260507110003 15 325 0.0 1.6 0.76 3.96 2.18 87 1011.9
20260507105003 15 325 0.0 3.2 0.86 3.96 2.18 87 1011.9
20260507104003 15 325 0.0 3.2 0.99 3.96 2.18 87 1012.4
20260507103003 15 325 1.6 3.2 1.04 3.96 2.18 87 1012.4
20260507102003 15 325 1.6 19.3 0.99 3.91 2.11 87 1012.8
20260507101002 15 302 11.3 19.3 0.33 3.23 1.45 87 1013.7
20260507100003 15 272 0.0 4.8 0.33 3.20 1.42 87 1011.6
20260507095003 15 271 0.0 0.0 0.25 3.10 1.32 87 1012.2
20260507094003 15 271 0.0 4.8 0.18 2.97 1.19 87 1012.6
20260507093002 15 271 0.0 0.0 0.15 2.92 1.14 87 1012.4
20260507092003 15 271 0.0 0.0 0.18 2.92 1.14 87 1012.5
20260507091003 15 271 0.0 0.0 0.25 2.90 1.12 87 1012.1
20260507090005 15 271 0.0 0.0 0.28 2.87 1.07 87 1012.3
20260507085003 15 271 0.0 0.0 0.41 2.87 1.07 87 1012.9
20260507084003 15 271 0.0 0.0 0.33 2.79 1.02 87 1013.0
20260507083003 15 271 0.0 0.0 0.38 2.77 0.99 87 1012.6
20260507082003 16 271 0.0 0.0 0.53 2.74 0.97 87 1012.5
20260507081003 16 271 1.6 4.8 0.53 2.64 0.86 87 1012.6
20260507080003 16 271 0.0 1.6 0.53 2.59 0.79 87 1012.6
20260507075003 16 271 0.0 4.8 0.43 2.46 0.69 87 1012.8
20260507054004 16 218 3.2 4.8 0.15 1.96 0.18 87 1014.9
20260507053004 16 218 3.2 4.8 0.15 1.93 0.15 87 1014.8
20260507052003 16 217 0.0 4.8 0.13 1.91 0.13 87 1014.6
20260507051003 16 217 0.0 3.2 0.10 1.88 0.10 87 1014.8
20260507050003 16 217 0.0 0.0 0.10 1.88 0.10 87 1015.0
20260507045003 16 217 0.0 0.0 0.05 1.85 0.05 87 1015.2
20260507044003 16 217 0.0 4.8 0.03 1.80 0.03 87 1015.3
20260507043003 16 217 0.0 0.0 0.03 1.78 0.00 86 1015.0
20260507042003 16 218 0.0 0.0 0.03 1.78 0.00 86 1014.7
20260507041003 16 218 0.0 0.0 0.15 1.78 0.00 86 1015.0
20260507040003 16 218 0.0 0.0 0.28 1.78 0.00 86 1014.8
20260507035003 16 218 0.0 0.0 0.33 1.78 1.78 86 1014.7
20260507034003 16 218 0.0 0.0 0.33 1.78 1.78 86 1014.8
20260507033003 16 218 0.0 3.2 0.38 1.75 1.75 86 1014.4
20260507032003 16 218 1.6 4.8 0.38 1.75 1.75 86 1014.5
20260507031003 16 241 3.2 4.8 0.28 1.65 1.65 86 1015.2
20260507030003 16 242 1.6 8.0 0.15 1.52 1.52 86 1015.1
20260507025003 16 262 0.0 4.8 0.10 1.45 1.45 86 1015.3
20260507024003 16 267 0.0 0.0 0.13 1.45 1.45 86 1014.8